Weather observations for the past three days for
Beckley, Raleigh County Memorial Airport
Imperial (Metric)
Date Time (edt) Wind (mph) Vis. (mi.) Weather Sky Cond. Temperature (ºF) Relative Humidity Wind Chill (°F) Heat Index (°F) Pressure Precipitation (in)
Air Dwpt 6 hour altimeter (in) sea level (mb) 1 hr 3 hr 6 hr
Max. Min.
12 18:51 E 5 10.00 Fair CLR 82.9 61 48% 83 30.19 1018.8
12 17:51 SE 8 10.00 Overcast FEW065 OVC095 81 63 54% 82 30.18 1018.7
12 16:51 SE 3 10.00 Overcast BKN060 OVC100 82 61 49% 83 30.18 1018.6
12 15:51 NE 8 10.00 Overcast BKN055 OVC090 84 59 43% 84 30.18 1018.6
12 13:51 W 6 10.00 Mostly Cloudy FEW047 FEW060 BKN075 82.9 60.1 84 70 46% 83 30.2 1019.3
12 12:51 Vrbl 3 10.00 Partly Cloudy FEW049 SCT060 82.9 60.1 46% 83 30.22 1019.7
12 11:51 SE 7 10.00 A Few Clouds FEW038 FEW050 81 59 47% 81 30.23 1020.0
12 10:51 Calm 10.00 Partly Cloudy SCT032 77 62.1 60% 79 30.23 1020.5
12 09:51 Vrbl 6 10.00 NULL NULL 75.9 61 60% 78 30.23 1020.2
12 08:51 E 9 10.00 Fair CLR 73 60.1 64% 30.21 1019.4
12 07:51 Vrbl 3 10.00 Fair CLR 69.1 57.9 69.1 60.1 68% 30.2 1018.9
12 06:51 Calm 10.00 Fair CLR 62.1 55 78% 30.19 1019.2
12 05:51 Calm 10.00 Fair CLR 62.1 55 78% 30.18 1018.7
12 04:51 Calm 10.00 Fair CLR 62.1 55 78% 30.17 1018.2
12 03:51 SE 3 10.00 Fair CLR 62.1 55 78% 30.16 1018.0
12 02:51 Calm 10.00 Fair CLR 61 55 81% 30.17 1018.3
12 01:51 Calm 10.00 Fair CLR 63 55.9 78.1 62.1 78% 30.17 1018.5
12 00:51 Calm 10.00 Fair CLR 64 55.9 75% 30.18 1018.8
11 23:51 E 3 10.00 Fair CLR 66 55.9 70% 30.18 1019.0
11 22:51 Calm 9.00 Fair CLR 66 55.9 70% 30.17 1018.7
11 21:51 Calm 10.00 Fair CLR 66.9 55 66% 30.16 1018.5
11 20:51 NE 3 10.00 Fair CLR 75 55 50% 78 30.15 1017.7
11 19:51 N 7 10.00 Fair CLR 78.1 54 82 78.1 43% 79 30.15 1017.5
11 18:51 N 9 10.00 Fair CLR 80.1 55 42% 80 30.14 1017.4
11 17:51 Vrbl 7 10.00 Mostly Cloudy BKN050 81 55.9 42% 81 30.13 1017.0
11 16:51 N 10 10.00 Fair CLR 81 55 41% 81 30.13 1016.8
11 15:51 Vrbl 6 G 20 10.00 Partly Cloudy SCT047 81 55 41% 81 30.14 1017.1
11 14:51 Vrbl 7 10.00 Fair CLR 80.1 55.9 44% 80 30.14 1017.1
11 13:51 N 12 G 17 10.00 Partly Cloudy SCT042 78.1 55 78.1 66 45% 79 30.14 1017.5
11 12:51 NW 12 10.00 A Few Clouds FEW035 77 55.9 48% 79 30.16 1018.1
11 11:51 NW 9 10.00 Mostly Cloudy BKN030 BKN036 73 57.9 59% 30.17 1018.5
11 10:51 NW 9 10.00 Mostly Cloudy SCT026 BKN031 71.1 57.9 63% 30.16 1018.4
11 09:51 N 9 10.00 Mostly Cloudy SCT019 BKN031 69.1 59 70% 30.15 1018.1
11 08:51 NW 8 10.00 Partly Cloudy SCT031 68 59 73% 30.15 1018.0
11 07:51 Calm 10.00 Fair CLR 66 57.9 66 60.1 75% 30.13 1017.4
11 06:51 NW 3 10.00 Fair CLR 62.1 57 84% 30.11 1017.0
11 05:51 NW 3 10.00 Fair CLR 61 55.9 84% 30.1 1016.6
11 04:51 Calm 10.00 Fair CLR 62.1 55.9 80% 30.08 1015.6
11 03:51 NW 8 10.00 Fair CLR 63 57 81% 30.08 1015.1
11 02:51 NW 9 10.00 Fair CLR 63 57 81% 30.07 1014.9
11 01:51 NW 10 10.00 Fair CLR 64 57 71.1 64 78% 30.09 1015.1
11 00:51 NW 8 10.00 A Few Clouds FEW023 FEW030 64.9 57 76% 30.1 1015.6
10 23:51 NW 6 10.00 Partly Cloudy SCT029 66 57 73% 30.08 1014.7
10 22:51 NW 6 10.00 A Few Clouds FEW031 66.9 57 71% 30.06 1014.2
10 21:51 NW 7 10.00 Overcast SCT030 OVC055 69.1 57.9 68% 30.05 1013.6
10 20:51 W 7 10.00 Mostly Cloudy FEW028 BKN048 70 59 68% 30.04 1013.3
10 19:51 W 9 10.00 Mostly Cloudy FEW028 BKN060 71.1 59 84 69.1 66% 30.03 1013.1
10 18:51 W 12 G 21 10.00 Overcast FEW024 OVC033 72 61 68% 30.01 1012.6
10 17:51 W 6 10.00 Overcast SCT022 SCT027 OVC055 71.1 63 76% 30.01 1012.3
10 16:51 W 14 G 22 10.00 Overcast FEW044 OVC060 75.9 60.1 58% 78 29.99 1011.3
10 15:51 W 13 G 24 10.00 Mostly Cloudy FEW047 BKN060 80.1 57.9 47% 81 29.98 1010.7
10 14:51 W 13 G 24 10.00 Mostly Cloudy BKN055 81 59 47% 81 29.96 1010.2
10 13:51 W 16 G 28 10.00 Light Rain SCT047 84 61 84.9 77 46% 84 29.95 1009.6
10 12:51 SW 15 G 24 10.00 Overcast FEW041 BKN049 OVC060 80.1 62.1 54% 81 29.94 1009.4
10 11:51 SW 17 G 28 10.00 Light Rain FEW050 SCT060 84.9 62.1 46% 85 29.94 1009.0
10 10:51 SW 18 G 26 10.00 A Few Clouds FEW043 82 63 53% 83 29.93 1008.9
10 09:51 SW 24 G 36 10.00 Light Rain and Breezy FEW034 80.1 64 58% 82 29.93 1008.9
10 08:51 SW 12 G 23 10.00 Fair CLR 79 64.9 62% 81 29.93 1008.8
10 07:51 SW 8 10.00 Overcast SCT025 BKN041 OVC048 77 66.9 78.1 75 71% 79 29.93 1008.7
10 06:51 S 7 10.00 A Few Clouds FEW039 75.9 68 77% 77 29.92 1008.7
10 05:51 S 9 10.00 Fair CLR 75.9 68 77% 77 29.91 1008.0
10 04:51 S 10 10.00 Fair CLR 77 68 74% 79 29.92 1008.2
10 03:51 S 12 10.00 Fair CLR 75.9 68 77% 77 29.92 1008.3
10 02:51 S 9 10.00 Fair CLR 75.9 68 77% 77 29.93 1008.5
10 01:51 SE 7 10.00 Fair CLR 75.9 68 82.9 75.9 77% 77 29.95 1009.4
10 00:51 SE 9 10.00 Fair CLR 77 66.9 71% 79 29.95 1009.5
09 23:51 SE 8 10.00 Fair CLR 78.1 68 71% 80 29.97 1010.0
09 22:51 SE 7 10.00 Fair CLR 79 68 69% 81 29.98 1010.5
09 21:51 SE 7 10.00 Fair CLR 79 69.1 72% 82 29.98 1010.7
09 20:51 SE 8 10.00 Fair CLR 80.1 68 67% 83 30 1011.5
09 19:51 S 6 10.00 Fair CLR 82.9 66.9 91 80.1 59% 86 29.99 1011.2
Date Time (edt) Wind (mph) Vis. (mi.) Weather Sky Cond. Air Dwpt Max. Min. Relative Humidity Wind Chill (°F) Heat Index (°F) altimeter (in) sea level (mb) 1 hr 3 hr 6 hr
6 hour
Temperature (ºF) Pressure Precipitation (in)